This demonstration page uses our WeatherBlox Daily Observations layout. Learn more.

Left ArrowRight Arrow

Hourly Observations for July 23, 2022

Temp ( °F °C ) Dew Point ( °F °C ) Humidity (%) Winds ( mph kmh ) Pressure ( in mb ) Visibility ( mi km ) Precip ( " mm )
12:53 am 00:53 Clear 72 22.2 43 6.1 35 35 SE 5 7 29.83 1010 10 16 0.00 0.00
1:53 am 01:53 Partly Cloudy 65 18.3 46 7.8 51 51 ESE 7 11 29.84 1011 10 16 0.00 0.00
2:53 am 02:53 Mostly Clear 65 18.3 46 7.8 51 51 Calm 29.83 1010 10 16 0.00 0.00
3:53 am 03:53 Clear 65 18.3 44 6.7 47 47 NE 5 7 29.83 1010 10 16 0.00 0.00
4:53 am 04:53 Clear 64 17.8 44 6.7 48 48 ENE 6 9 29.85 1011 10 16 0.00 0.00
5:53 am 05:53 Clear 64 17.8 43 6.1 46 46 E 3 6 29.85 1011 10 16 0.00 0.00
6:53 am 06:53 Sunny 60 15.6 46 7.8 60 60 Calm 29.89 1012 10 16 0.00 0.00
7:53 am 07:53 Sunny 68 20 46 7.8 45 45 VRB 5 7 29.88 1012 10 16 0.00 0.00
8:53 am 08:53 Partly Cloudy 70 21.1 47 8.3 44 44 WNW 5 7 29.94 1014 10 16 0.00 0.00
9:53 am 09:53 Mostly Cloudy 69 20.6 52 11.1 55 55 Calm 29.99 1016 10 16 0.00 0.00
10:53 am 10:53 Mostly Cloudy 77 25 47 8.3 35 35 Calm 29.96 1014 10 16 0.00 0.00
11:53 am 11:53 Sunny 80 26.7 48 8.9 33 33 ESE 3 6 29.93 1014 10 16 0.00 0.00
12:53 pm 12:53 Sunny 84 28.9 45 7.2 25 25 E 6 9 29.89 1012 10 16 0.00 0.00
1:53 pm 13:53 Mostly Sunny 85 29.4 45 7.2 25 25 ESE 5 7 29.89 1012 10 16 0.00 0.00
2:53 pm 14:53 Sunny 91 32.8 46 7.8 21 21 N 7 11 29.85 1011 10 16 0.00 0.00
3:53 pm 15:53 Sunny 91 32.8 46 7.8 21 21 NW 7 11 29.83 1010 10 16 0.00 0.00
4:53 pm 16:53 Mostly Cloudy with Nearby Thunderstorms 70 21.1 53 11.7 55 55 N 29 46 29.97 1015 10 16 0.00 0.00
5:10 pm 17:10 Mostly Cloudy with Light Rain 71 21.7 52 11.1 51 51 N 28 44 29.78 1008 9 14 0.00 0.00
5:53 pm 17:53 Sunny 79 26.1 46 7.8 31 31 ENE 9 15 29.95 1014 10 16 0.00 0.00
6:53 pm 18:53 Mostly Cloudy 73 22.8 52 11.1 48 48 SSW 5 7 30.02 1017 10 16 0.00 0.00
7:53 pm 19:53 Mostly Cloudy 71 21.7 55 12.8 57 57 SSE 12 19 29.97 1015 10 16 0.00 0.00
8:53 pm 20:53 Mostly Clear 71 21.7 54 12.2 55 55 NNE 7 11 29.94 1014 10 16 0.00 0.00
9:53 pm 21:53 Clear 68 20 53 11.7 59 59 E 9 15 29.96 1015 10 16 0.00 0.00
10:53 pm 22:53 Clear 67 19.4 52 11.1 59 59 ESE 9 15 29.95 1014 10 16 0.00 0.00
11:53 pm 23:53 Clear 67 19.4 52 11.1 59 59 E 7 11 29.94 1014 10 16 0.00 0.00

Powered by AerisWeather